Wind_Speed
15 20 20 18 21 21 20 19 18 19 17 18 19 17 19 21 23 22 19 18 18 17 18 20 19 16 20 19 17 18 15 19 15 12 15 7 10 14 21 23 18 14 13
12 13 16 18 20 19 19 22 25 24 26 27 26 26 25 25 25 26 23 22 23 23 21 22 22 22 21 22 24 22 20 16 19 17 18 12 22 26 24 21 22 19 20
12 14 17 17 17 20 25 28 31 33 35 36 37 38 36 33 29 29 28 26 24 25 25 25 24 23 22 22 21 25 26 26 26 27 23 23 31 31 26 23 23 21 20
16 17 18 19 22 24 27 31 36 41 45 46 45 43 39 35 32 29 31 31 29 28 27 27 27 27 22 20 22 24 25 28 30 31 31 29 28 27 28 29 26 23 22
20 21 24 26 28 30 32 36 40 43 44 41 37 36 33 29 27 27 30 32 34 32 30 29 29 28 27 26 26 23 24 25 29 31 33 32 30 30 30 27 28 28 26
24 25 29 34 36 38 40 42 43 40 35 33 32 31 30 27 26 23 25 30 34 37 36 32 32 33 31 26 29 28 26 26 27 29 32 32 28 26 26 30 31 32 31
31 34 37 39 41 42 43 44 43 40 38 35 34 32 32 30 26 24 23 28 31 33 36 39 38 38 35 33 30 32 34 35 32 29 30 31 29 28 28 27 25 29 35
38 41 44 46 47 46 45 44 44 43 41 40 39 38 36 32 28 27 27 29 32 33 32 35 38 39 37 39 38 38 38 38 37 34 32 28 27 27 31 32 34 35 33
44 47 48 51 51 48 43 41 42 42 42 42 42 41 40 36 33 33 30 31 33 35 33 34 36 38 36 40 45 45 41 39 35 35 36 33 30 29 31 34 36 39 39
46 49 52 52 47 44 43 43 42 42 42 42 42 40 39 38 38 36 33 34 34 34 35 35 35 37 37 39 44 49 47 42 41 40 38 37 36 36 34 38 36 40 39
50 48 47 46 45 44 46 44 42 41 41 41 42 40 39 38 36 34 34 37 36 34 36 37 35 35 38 41 42 44 45 45 44 44 45 46 46 43 41 39 36 35 35
48 49 51 50 48 46 44 43 36 36 39 40 40 40 38 37 38 37 34 37 35 37 36 37 37 37 38 38 38 42 39 41 41 40 39 38 40 46 46 33 32 33 35
47 49 49 47 42 38 36 35 36 32 31 33 35 35 35 35 36 32 32 36 26 30 35 36 37 37 38 38 37 37 41 42 40 38 36 39 36 35 40 40 34 34 34
48 47 45 43 42 43 46 45 38 33 31 31 30 33 30 32 30 26 29 31 28 34 36 39 40 39 36 38 38 38 38 42 41 36 34 29 26 31 31 36 34 32 37
45 45 44 43 42 39 37 36 34 31 34 35 36 38 39 37 29 29 28 32 38 38 40 42 37 37 33 33 34 37 37 37 42 36 32 29 25 25 31 31 33 36 41
39 38 39 38 40 39 41 40 37 39 37 39 43 44 43 39 31 28 30 33 34 42 47 46 45 36 30 35 26 32 30 30 36 37 33 32 29 28 31 35 34 37 38
27 28 29 30 32 33 36 42 44 39 39 39 39 40 41 37 33 32 34 35 37 39 45 47 47 46 45 41 35 35 32 32 32 32 34 30 28 25 24 23 27 32 35
29 30 32 32 34 36 38 39 40 41 40 36 36 41 36 34 36 33 32 38 39 39 40 42 45 44 43 42 43 42 37 35 35 35 35 32 30 28 27 25 24 30 35
33 35 38 39 39 41 40 40 41 39 39 38 37 35 35 34 37 34 32 35 37 38 38 38 39 41 42 39 40 40 37 37 38 36 36 34 32 29 26 27 24 24 25
36 38 42 43 44 43 43 42 41 41 40 38 34 30 31 33 33 31 31 31 33 35 34 34 35 37 36 34 36 35 35 35 37 38 36 33 32 29 27 27 25 23 23
38 43 43 42 42 43 43 42 40 39 39 38 36 31 29 30 29 29 29 31 32 31 31 29 29 31 33 31 30 31 31 32 34 35 34 35 34 32 30 29 29 28 29
48 51 47 45 48 48 45 40 37 34 34 34 31 30 25 25 26 27 29 28 30 31 34 32 32 28 26 27 26 28 30 31 30 31 34 34 35 35 33 33 32 31 32
55 52 51 49 44 40 39 34 31 28 28 28 27 24 22 22 24 27 26 26 26 28 30 27 28 28 29 23 24 25 26 29 29 23 30 34 34 35 36 37 34 35 33
52 50 47 42 38 36 35 27 25 24 25 22 20 21 21 23 24 21 25 22 22 24 24 26 29 24 25 28 26 25 27 26 27 27 20 25 30 35 37 36 35 35 34
47 48 43 37 33 31 31 21 20 21 18 17 17 20 20 20 18 22 27 24 20 23 22 22 26 26 26 31 28 26 26 27 27 29 36 33 35 34 30 33 35 35 34
46 45 43 36 31 26 25 17 13 12 10 12 16 20 17 21 17 18 20 25 25 18 19 22 22 27 26 24 27 32 33 36 34 33 34 28 31 33 32 32 33 32 32
Wind_Direction
260 276 283 276 276 285 287 289 293 297 301 308 312 310 309 288 295 286 284 284 281 279 278 277 275 264 261 260 255 251 270 249 256 264 242 293 234 254 268 270 277 278 275
275 271 262 265 272 277 275 282 288 293 298 300 301 304 304 292 287 285 281 286 280 275 277 276 275 272 263 259 259 253 250 247 247 252 243 232 247 245 256 265 272 271 274
250 255 260 267 269 276 285 294 296 297 299 301 301 300 298 294 288 279 277 275 276 274 272 271 271 272 274 266 265 261 252 250 249 257 248 238 236 255 272 272 270 266 259
251 257 265 266 272 281 288 294 299 302 303 303 300 297 295 290 284 278 270 268 268 269 269 265 260 258 261 269 270 266 259 256 252 251 253 255 258 259 265 273 278 281 268
254 260 267 271 276 281 285 289 293 296 297 298 299 300 296 290 287 275 271 264 263 261 260 262 260 259 263 260 262 264 268 264 261 261 258 258 259 260 264 269 277 283 281
267 271 274 278 285 290 294 296 297 296 291 291 297 301 298 290 286 281 270 263 258 259 259 259 258 260 256 259 249 254 258 264 264 260 258 259 260 260 262 262 261 267 264
278 282 287 290 294 297 299 300 299 295 289 287 289 292 293 294 289 281 273 268 263 258 256 256 254 257 256 256 257 250 254 256 254 256 258 256 258 264 262 264 254 253 258
291 292 293 295 297 300 302 300 296 291 286 284 286 287 288 286 287 283 275 268 267 265 261 259 257 252 253 259 259 253 255 257 251 252 252 250 250 250 257 260 260 265 264
296 298 299 300 301 301 298 294 290 288 283 280 282 282 286 286 284 282 276 269 267 266 263 261 259 259 254 252 255 256 252 249 248 248 250 250 246 252 248 253 257 257 258
295 294 295 297 298 297 295 292 288 284 282 279 279 278 280 282 284 281 276 269 264 267 269 262 259 258 256 253 251 255 255 251 246 249 248 250 251 255 253 248 249 255 257
293 295 295 293 292 291 289 288 288 286 281 277 276 276 277 278 277 277 281 278 265 263 265 267 264 259 257 254 252 255 259 261 260 258 254 255 256 260 259 249 249 252 255
292 293 293 293 291 290 287 285 285 284 282 278 276 275 273 271 270 272 275 275 264 262 260 265 264 263 260 259 255 253 259 261 262 261 259 263 264 262 257 245 250 251 255
292 291 291 291 285 283 284 284 280 278 285 286 282 279 274 270 269 274 276 267 252 260 258 258 257 258 258 259 259 258 256 259 265 270 264 266 274 263 253 243 240 251 253
290 290 289 290 287 284 286 284 277 271 271 275 273 271 270 274 272 268 265 258 258 259 255 254 255 258 259 259 259 258 258 255 260 268 265 265 268 254 246 247 251 241 254
290 290 288 286 289 288 286 285 282 268 262 263 262 264 268 269 271 272 270 262 254 251 257 258 257 257 255 259 261 259 258 255 255 260 262 264 269 264 256 255 255 252 253
294 291 288 285 287 287 285 281 277 276 275 265 267 269 268 269 268 264 266 266 256 251 253 254 254 251 246 256 260 259 260 258 256 255 258 258 265 272 271 261 246 243 246
309 311 309 304 301 296 290 281 281 279 275 273 269 269 270 269 266 265 264 264 263 261 258 260 257 257 250 252 249 256 257 259 257 253 254 254 256 272 261 255 238 239 245
311 310 309 308 307 299 291 286 288 285 284 277 268 267 268 271 269 266 260 259 263 265 263 262 261 259 255 254 250 252 256 258 257 254 252 254 258 265 259 257 249 239 246
316 312 307 304 304 303 300 288 282 281 281 282 274 271 269 265 266 265 258 261 267 267 268 265 262 259 257 256 254 255 256 252 253 254 252 252 255 258 258 251 252 256 245
318 317 315 310 306 303 301 296 282 274 275 276 276 273 269 268 265 260 259 262 263 269 268 265 263 264 260 254 252 248 250 252 250 249 250 249 250 250 250 248 244 246 244
320 322 318 310 306 305 302 299 289 275 271 272 273 272 270 268 264 262 266 267 266 265 266 267 264 261 258 260 248 240 244 248 245 245 246 246 245 246 247 248 248 242 238
326 329 323 316 311 307 302 294 290 276 273 273 274 266 265 261 263 269 272 269 265 261 264 259 259 256 261 254 239 239 242 243 241 243 243 243 244 246 248 245 246 248 250
334 330 324 318 312 309 306 293 283 276 277 275 267 259 256 258 263 267 271 270 267 261 257 251 249 244 250 251 236 236 240 242 250 249 245 240 243 243 242 243 247 251 255
335 330 326 322 318 313 310 294 281 274 276 265 256 255 255 264 276 270 271 264 266 262 259 253 246 247 232 237 239 227 239 246 252 246 240 244 244 245 241 245 246 250 252
339 339 337 333 325 320 319 299 281 277 268 253 250 252 263 273 278 266 260 276 247 257 251 248 246 244 241 229 235 232 222 236 244 231 230 236 236 240 247 245 247 249 253
345 347 347 344 340 333 330 321 294 279 259 261 257 258 270 277 273 275 272 279 265 268 254 251 247 245 226 228 236 226 228 232 241 240 252 250 243 246 250 251 248 250 253
Height
3187 3187 3188 3188 3189 3189 3187 3186 3186 3186 3186 3185 3184 3184 3183 3183 3183 3181 3181 3181 3179 3180 3180 3179 3181 3185 3187 3190 3190 3189 3189 3189 3191 3192 3197 3195 3200 3200 3201 3201 3201 3202 3202
3184 3184 3184 3185 3185 3185 3184 3183 3182 3183 3182 3182 3181 3181 3181 3180 3178 3174 3174 3173 3173 3174 3174 3175 3175 3177 3180 3182 3184 3186 3186 3189 3189 3191 3192 3194 3195 3197 3199 3198 3197 3197 3195
3181 3180 3181 3181 3182 3181 3178 3178 3177 3176 3175 3175 3173 3172 3171 3171 3170 3169 3167 3167 3167 3167 3168 3168 3169 3171 3173 3175 3175 3177 3180 3182 3185 3186 3189 3191 3192 3192 3191 3192 3192 3192 3192
3177 3177 3178 3178 3177 3177 3175 3173 3170 3167 3163 3162 3161 3159 3159 3159 3159 3160 3159 3159 3159 3159 3160 3160 3161 3162 3164 3167 3169 3170 3172 3173 3175 3177 3179 3182 3184 3186 3185 3184 3184 3185 3185
3174 3174 3173 3173 3172 3171 3170 3168 3165 3162 3158 3154 3151 3149 3148 3148 3149 3149 3150 3150 3150 3150 3151 3153 3153 3154 3155 3158 3159 3162 3162 3164 3166 3168 3169 3172 3175 3177 3177 3178 3177 3176 3177
3168 3168 3167 3165 3163 3161 3159 3157 3155 3153 3151 3148 3146 3143 3141 3141 3141 3141 3141 3139 3140 3141 3142 3144 3145 3145 3147 3148 3150 3152 3154 3155 3156 3158 3161 3162 3166 3168 3170 3170 3169 3169 3170
3160 3159 3157 3154 3153 3151 3148 3145 3143 3141 3140 3139 3138 3137 3135 3133 3134 3134 3134 3131 3131 3131 3132 3133 3135 3137 3139 3140 3141 3142 3144 3145 3148 3150 3150 3153 3156 3159 3160 3161 3163 3162 3162
3151 3149 3146 3143 3141 3139 3137 3134 3132 3130 3129 3128 3128 3127 3126 3126 3125 3126 3126 3123 3121 3122 3123 3124 3125 3127 3130 3131 3131 3132 3134 3135 3138 3142 3141 3146 3147 3150 3150 3153 3154 3154 3155
3142 3138 3135 3132 3130 3129 3127 3125 3122 3119 3118 3118 3117 3116 3115 3114 3115 3116 3116 3115 3112 3112 3113 3114 3114 3116 3120 3121 3121 3121 3123 3126 3128 3130 3133 3136 3139 3140 3142 3142 3143 3144 3145
3131 3128 3125 3122 3120 3118 3116 3113 3111 3109 3106 3105 3105 3105 3105 3103 3103 3103 3103 3103 3102 3103 3104 3104 3105 3106 3108 3110 3109 3110 3112 3116 3118 3120 3122 3124 3126 3129 3131 3131 3133 3134 3136
3121 3117 3115 3112 3110 3107 3103 3101 3099 3097 3095 3094 3093 3093 3093 3093 3093 3093 3092 3090 3091 3093 3092 3093 3095 3096 3097 3098 3100 3101 3104 3107 3107 3108 3110 3112 3116 3118 3120 3121 3124 3125 3128
3109 3105 3101 3099 3096 3093 3089 3087 3085 3084 3082 3081 3081 3081 3082 3082 3082 3082 3082 3080 3080 3080 3082 3082 3083 3084 3085 3086 3089 3093 3095 3095 3095 3097 3098 3101 3104 3107 3107 3105 3113 3117 3119
3097 3093 3089 3085 3082 3080 3077 3075 3073 3073 3072 3070 3069 3069 3069 3069 3069 3070 3069 3066 3066 3069 3070 3070 3070 3072 3073 3075 3077 3081 3083 3084 3087 3088 3090 3092 3093 3093 3097 3098 3102 3106 3109
3084 3080 3076 3073 3070 3068 3065 3062 3061 3061 3061 3060 3059 3058 3058 3057 3058 3061 3056 3056 3057 3057 3057 3058 3059 3061 3062 3063 3065 3069 3071 3075 3077 3079 3081 3083 3083 3083 3085 3091 3092 3096 3099
3071 3067 3064 3060 3057 3054 3053 3051 3049 3049 3049 3047 3047 3046 3046 3046 3048 3048 3048 3047 3046 3046 3045 3045 3048 3050 3051 3052 3054 3057 3060 3063 3065 3070 3071 3073 3074 3075 3077 3080 3084 3086 3089
3059 3056 3052 3049 3046 3044 3040 3039 3041 3038 3037 3036 3035 3034 3034 3033 3036 3037 3036 3035 3034 3035 3032 3032 3036 3039 3041 3043 3045 3048 3050 3052 3055 3059 3062 3064 3065 3066 3068 3069 3071 3075 3078
3052 3048 3043 3040 3036 3032 3029 3025 3022 3024 3024 3022 3022 3021 3019 3022 3023 3024 3025 3023 3020 3020 3018 3020 3022 3026 3028 3032 3034 3037 3040 3042 3045 3047 3050 3054 3056 3058 3059 3059 3063 3066 3068
3046 3041 3035 3031 3027 3022 3018 3015 3012 3008 3006 3007 3009 3007 3008 3009 3009 3011 3011 3007 3007 3007 3008 3008 3009 3012 3015 3019 3023 3025 3030 3032 3034 3036 3040 3044 3047 3049 3052 3053 3055 3057 3059
3039 3034 3027 3022 3017 3011 3006 3001 2998 2996 2993 2992 2993 2994 2995 2996 2994 2997 2998 2996 2995 2994 2995 2996 2997 3000 3003 3007 3010 3014 3017 3020 3023 3026 3029 3032 3036 3039 3042 3044 3046 3048 3050
3031 3025 3017 3009 3003 2997 2992 2986 2983 2981 2980 2979 2980 2982 2983 2982 2982 2984 2985 2986 2984 2984 2984 2985 2987 2987 2991 2995 2998 3002 3005 3008 3010 3014 3018 3022 3026 3029 3032 3036 3038 3040 3041
3022 3014 3005 2996 2990 2983 2977 2972 2968 2966 2966 2966 2967 2970 2971 2970 2971 2973 2975 2976 2974 2975 2975 2976 2977 2978 2980 2983 2986 2990 2994 2997 3000 3003 3007 3011 3016 3019 3023 3026 3029 3030 3032
3010 3000 2991 2983 2975 2967 2961 2957 2954 2952 2952 2953 2955 2957 2959 2960 2962 2963 2963 2964 2964 2964 2965 2967 2968 2970 2971 2972 2976 2979 2983 2986 2989 2992 2996 3000 3004 3008 3012 3015 3017 3020 3023
2998 2987 2978 2969 2960 2953 2947 2943 2941 2941 2942 2942 2944 2946 2949 2951 2952 2953 2953 2953 2954 2954 2954 2956 2958 2960 2963 2964 2967 2970 2973 2976 2979 2983 2985 2989 2993 2997 3000 3004 3006 3008 3011
2990 2979 2967 2956 2948 2941 2936 2932 2932 2932 2932 2933 2936 2938 2940 2942 2944 2945 2945 2944 2944 2945 2946 2947 2948 2951 2954 2956 2959 2961 2965 2968 2972 2973 2976 2980 2983 2986 2989 2993 2995 2999 3002
2982 2970 2959 2948 2940 2934 2928 2924 2924 2925 2925 2927 2930 2933 2935 2936 2937 2936 2935 2934 2936 2937 2938 2938 2940 2942 2944 2947 2951 2953 2956 2958 2961 2965 2968 2970 2975 2975 2979 2983 2986 2989 2992
2977 2965 2953 2944 2936 2930 2925 2921 2920 2921 2923 2925 2927 2929 2930 2930 2931 2930 2929 2928 2928 2928 2930 2932 2933 2934 2937 2940 2942 2945 2948 2949 2953 2956 2958 2962 2966 2966 2970 2973 2976 2978 2982